Regional Weather Roundup
Issued by NWS

Home | Current Version | Previous Version | Text Only | Print | Product List | Glossary Off
Versions: 1 2 3 4 5 6 7 8 9 10 11 12 13 14 15 16 17 18 19 20 21 22 23 24 25 26 27 28 29 30 31 32 33 34 35 36 37 38 39 40 41 42 43 44 45 46 47 48 49 50

508
ASUS43 KDTX 041810
RWRMI
MICHIGAN HOURLY REGIONAL WEATHER ROUNDUP
NATIONAL WEATHER SERVICE DETROIT/PONTIAC MI
ISSUED BY NATIONAL WEATHER SERVICE GRAND RAPIDS MI
100 PM EST SUN DEC 04 2016

NOTE: "FAIR" INDICATES FEW OR NO CLOUDS BELOW 12,000 FEET WITH NO
SIGNIFICANT WEATHER AND/OR OBSTRUCTION TO VISIBILITY.

MIZ047>049-052>055-059>063-066>070-074>076-081>083-041900-
SOUTHEAST LOWER MICHIGAN

CITY           SKY/WX    TMP DP  RH WIND       PRES   REMARKS
ADRIAN         CLOUDY    36  29  75 SE9       30.09F WCI  29
6HR MIN TEMP:  30; 6HR MAX TEMP:  37;

ALMA           PTSUNNY   37  28  70 S7        30.10F WCI  31
ANN ARBOR      CLOUDY    38  27  64 E10       30.10F WCI  31
BAD AXE        CLOUDY    36  30  79 S5        30.14F WCI  32
DETROIT CITY   CLOUDY    38  28  67 S8        30.13F WCI  32
6HR MIN TEMP:  35; 6HR MAX TEMP:  38;

DETROIT        CLOUDY    38  27  64 S7        30.13F WCI  33
6HR MIN TEMP:  34; 6HR MAX TEMP:  38;

FLINT          CLOUDY    37  27  67 SE7       30.11F WCI  32
6HR MIN TEMP:  32; 6HR MAX TEMP:  37;

GROSSE ILE     MOSUNNY   38  29  68 SE8       30.11F WCI  32
6HR MIN TEMP:  35; 6HR MAX TEMP:  38;

HILLSDALE      CLOUDY    34  28  80 SE8       30.04F WCI  27
HOWELL         CLOUDY    36  26  67 SE8       30.09F WCI  29
6HR MIN TEMP:  32; 6HR MAX TEMP:  37;


CITY           SKY/WX    TMP DP  RH WIND       PRES   REMARKS
JACKSON        CLOUDY    37  26  64 SE8       30.07F WCI  31
6HR MIN TEMP:  32; 6HR MAX TEMP:  37;

LANSING        CLOUDY    36  24  62 SE7       30.09F WCI  30
6HR MIN TEMP:  33; 6HR MAX TEMP:  37;

MASON          CLOUDY    35  28  76 SE3       30.08F
MONROE         PTSUNNY   38  30  71 SE6       30.10F WCI  34
6HR MIN TEMP:  30; 6HR MAX TEMP:  38;

MT. CLEMENS    CLOUDY    38  29  68 S8        30.11F WCI  32
6HR MIN TEMP:  35; 6HR MAX TEMP:  40;

PONTIAC        CLOUDY    36  26  67 SE8       30.10F WCI  30
6HR MIN TEMP:  33; 6HR MAX TEMP:  36;

PORT HOPE        N/A     38  28  67 S6        30.13F WCI  33
6HR MIN TEMP:  35; 6HR MAX TEMP:  38;

PORT HURON     CLOUDY    37  30  75 CALM      30.14F
TRI CITIES     CLOUDY    37  27  67 SE6       30.13F WCI  32
6HR MIN TEMP:  33; 6HR MAX TEMP:  37;

YPSILANTI      CLOUDY    39  28  64 SE8       30.11F WCI  33
6HR MIN TEMP:  35; 6HR MAX TEMP:  39;

$$
MIZ043>046-050>051-056>058-064>065-071>073-077>080-041900-
SOUTHWEST LOWER MICHIGAN

CITY           SKY/WX    TMP DP  RH WIND       PRES   REMARKS
BATTLE CREEK   CLOUDY    36  28  73 SE7       30.06F WCI  30
6HR MIN TEMP:  32; 6HR MAX TEMP:  36;

BENTON HARBOR  LGT SNOW  35  29  78 SE12      30.04F WCI  27
6HR MIN TEMP:  33; 6HR MAX TEMP:  36; 6HR PCP: TRACE;

BIG RAPIDS     CLOUDY    37  25  63 SE13      30.05F WCI  28
6HR MIN TEMP:  33; 6HR MAX TEMP:  37;

COLDWATER      CLOUDY    37  27  68 SE8       30.04F WCI  31
6HR MIN TEMP:  32; 6HR MAX TEMP:  38;

HOLLAND        CLOUDY    36  28  73 E12       30.05F WCI  28
6HR MIN TEMP:  33; 6HR MAX TEMP:  36;

GRAND RAPIDS   CLOUDY    36  26  67 E12       30.05F WCI  28
6HR MIN TEMP:  32; 6HR MAX TEMP:  36;

KALAMAZOO      LGT SNOW  36  27  69 E7        30.06F WCI  30
6HR MIN TEMP:  32; 6HR MAX TEMP:  37; 6HR PCP: TRACE;

MARSHALL       CLOUDY    37  28  70 E7        30.06F WCI  31
6HR MIN TEMP:  30; 6HR MAX TEMP:  37;

MOUNT PLEASANT CLOUDY    36  28  71 E7        30.09F WCI  31
6HR MIN TEMP:  32; 6HR MAX TEMP:  37;

MUSKEGON       CLOUDY    37  26  64 SE12      30.05F WCI  29
6HR MIN TEMP:  35; 6HR MAX TEMP:  38;

STURGIS        CLOUDY    37  28  69 S8        30.04F WCI  31
6HR MIN TEMP:  32; 6HR MAX TEMP:  37;

$$
MIZ016>042-041900-
NORTHERN LOWER MICHIGAN

CITY           SKY/WX    TMP DP  RH WIND       PRES   REMARKS
ALPENA         CLOUDY    40  29  64 S9        30.12F WCI  34
6HR MIN TEMP:  33; 6HR MAX TEMP:  40;

BEAVER ISLAND  CLOUDY    36  30  80 SE5       30.06F WCI  32
6HR MIN TEMP:  34; 6HR MAX TEMP:  37;

BELLAIRE       CLOUDY    35  31  85 SE7       30.09F WCI  29
6HR MIN TEMP:  33; 6HR MAX TEMP:  35;

CADILLAC       LGT SNOW  32  28  84 SE8       30.04F WCI  25
CHARLEVOIX     CLOUDY    35  30  82 SE10      30.10F WCI  27
6HR MIN TEMP:  33; 6HR MAX TEMP:  35;

GAYLORD        CLOUDY    34  27  75 S12       30.06F WCI  25
6HR MIN TEMP:  32; 6HR MAX TEMP:  34;

HOUGHTON LAKE  CLOUDY    34  25  69 S9        30.08F WCI  27
6HR MIN TEMP:  30; 6HR MAX TEMP:  34;

MANISTEE       LGT SNOW  32  31  96 SE5       30.05F FOG     WCI  27
OSCODA         CLOUDY    40  29  65 SW5       30.12F
6HR MIN TEMP:  34; 6HR MAX TEMP:  41;

PELLSTON       CLOUDY    36  30  79 SE5       30.09F WCI  32
6HR MIN TEMP:  32; 6HR MAX TEMP:  36;

TRAVERSE CITY  FLURRIES  36  29  75 S8        30.06F WCI  30
6HR MIN TEMP:  33; 6HR MAX TEMP:  37; 6HR PCP: TRACE;

LUDINGTON      LGT SNOW  32  32 100 SE7       30.05F VSB 1   WCI  26
6HR MIN TEMP:  32; 6HR MAX TEMP:  34; 6HR PCP:  0.01;

$$
MIZ007>008-015-041900-
EASTERN UPPER MICHIGAN

CITY           SKY/WX    TMP DP  RH WIND       PRES   REMARKS
KINROSS        FLURRIES  32  31  96 SE13      30.09F WCI  22
6HR MIN TEMP:  31; 6HR MAX TEMP:  32; 6HR PCP:  0.03;

MACKINAC ISLAN CLOUDY    36  31  83 SE6       30.08F WCI  31
6HR MIN TEMP:  35; 6HR MAX TEMP:  36;

NEWBERRY       CLOUDY    34  33  97 SE6       30.04F WCI  29
6HR MIN TEMP:  31; 6HR MAX TEMP:  34;

S. S. MARIE    CLOUDY    33  29  85 E9G20     30.09F FOG     WCI  25
6HR MIN TEMP:  31; 6HR MAX TEMP:  33; 6HR PCP: TRACE;

$$
MIZ004>006-011>014-085-041900-
CENTRAL UPPER MICHIGAN

CITY           SKY/WX    TMP DP  RH WIND       PRES   REMARKS
MANISTIQUE     CLOUDY    32  31  94 NW5       30.03F WCI  28
6HR MIN TEMP:  31; 6HR MAX TEMP:  32;

ESCANABA       MIX PCPN  32  27  80 CALM      30.03F
6HR MIN TEMP:  30; 6HR MAX TEMP:  34; 6HR PCP: TRACE;

MENOMINEE      LGT SNOW  32  30  92 S6        30.03F FOG     WCI  26
6HR MIN TEMP:  30; 6HR MAX TEMP:  33; 6HR PCP: TRACE;

SAWYER-GWINN   CLOUDY    30  21  69 SW13      29.99F WCI  20
$$
MIZ001>003-009>011-084-041900-
WESTERN UPPER MICHIGAN

CITY           SKY/WX    TMP DP  RH WIND       PRES   REMARKS
IRON MOUNTAIN  LGT SNOW  29  25  85 SE6       29.97F VSB 1   WCI  23
6HR MIN TEMP:  28; 6HR MAX TEMP:  30; 6HR PCP: TRACE;

HOUGHTON       LGT SNOW  29  24  82 S9        29.93F WCI  20
6HR MIN TEMP:  29; 6HR MAX TEMP:  30; 6HR PCP: TRACE;

COPPER HARBOR    N/A     33  25  72 SW7       29.96F WCI  27
6HR MIN TEMP:  32; 6HR MAX TEMP:  35;

IRONWOOD       LGT SNOW  31  27  85 S10       29.88F FOG     WCI  22
6HR MIN TEMP:  27; 6HR MAX TEMP:  31; 6HR PCP: TRACE;

$$

ABBREVIATIONS USED IN REMARKS
   TC - TEMPERATURE IN CELSIUS
  WCI - WIND CHILL INDEX
   HX - HEAT INDEX
  VSB - VISIBILITY





USA.gov is the U.S. government's official web portal to all federal, state and local government web resources and services.